Location: Unspecified
(0.0000°N, 0.0000°E)
Time: 17:35:20
(UTC+00:00)

Vanguard 2 - Pass Details

Date: 10 December 2017
Orbit: 553 x 2940 km, 32.9° (Epoch: 18 January)

Event Time Altitude Azimuth Distance (km) Brightness Sun altitude
Rises 04:51:52 0° 247° (WSW) 5,446 11.5 -14.0°
Reaches altitude 10° 04:57:03 10° 229° (SW) 4,868 11.4 -12.8°
Maximum altitude 05:06:04 18° 191° (S) 4,735 11.7 -10.7°
Drops below altitude 10° 05:16:36 10° 153° (SSE) 5,746 12.8 -8.3°
Sets 05:23:48 0° 136° (SE) 6,781 13.8 -6.7°
